Meteo Giornale » Osservazioni meteo Italia » Venezia-Tessera

ore: 20:50 - Osservazioni Meteo Venezia-Tessera
Lat. 45° 30' N Lon. 12° 20' E Alt. 2 metri s.l.m.

coperto_pioggia Europe/Rome

5 °C

Pioggia Debole

Temp. 24 Ore

3 °C

8 °C

Nord-Est

29.6 Km/h

Dew point 1 °C

Umidità 75 %

Visibilità  10 Km

Il sole sorge alle ore 07:14

Il sole tramonta alle ore 16:38

Data e Ora Cielo e Fenomeni T °C DP °C Um. % Pres. hPa Vis. km Vento km/h
Oggi h: 20:50 coperto_pioggia Pioggia Debole 5 1 75 1009 10 NE 29.6
Oggi h: 20:20 molto_nuvoloso Molto Nuvoloso 5 1 75 1009 10 N/NE 29.6
Oggi h: 19:50 molto_nuvoloso Molto Nuvoloso 5 1 75 1009 10 N/NE 27.8
Oggi h: 19:20 molto_nuvoloso Molto Nuvoloso 5 1 75 1010 10 NE 29.6
Oggi h: 18:50 coperto_pioggia Pioggia Debole 6 1 70 1010 10 NE 29.6
Oggi h: 18:20 molto_nuvoloso Molto Nuvoloso 6 0 65 1010 10 NE 22.2
Oggi h: 17:50 molto_nuvoloso Molto Nuvoloso 6 -0 65 1010 10 NE 24
Oggi h: 17:20 molto_nuvoloso Molto Nuvoloso 7 -0 60 1010 10 NE 29.6
Oggi h: 16:50 molto_nuvoloso Molto Nuvoloso 7 0 60 1010 10 NE 25.9
Oggi h: 16:20 molto_nuvoloso Molto Nuvoloso 6 1 70 1010 10 NE 27.8
Oggi h: 15:50 coperto_pioggia Pioggia Debole 7 1 65 1010 10 NE 25.9
Oggi h: 15:20 coperto_pioggia Pioviggine Leggera 7 1 65 1010 10 NE 24
Oggi h: 14:50 molto_nuvoloso Molto Nuvoloso 8 1 61 1010 10 NE 24
Oggi h: 14:20 molto_nuvoloso Molto Nuvoloso 8 1 61 1010 10 NE 25.9
Oggi h: 13:50 molto_nuvoloso Molto Nuvoloso 8 1 61 1010 10 NE 25.9
Oggi h: 13:20 molto_nuvoloso Molto Nuvoloso 8 1 61 1011 10 NE 24
Oggi h: 12:50 molto_nuvoloso Molto Nuvoloso 8 0 56 1011 10 NE 25.9
Oggi h: 12:20 nuvoloso Nuvoloso 8 -0 56 1011 10 NE 25.9
Oggi h: 11:50 sereno Sereno 8 -0 56 1011 10 NE 27.8
Oggi h: 11:20 sereno Sereno 8 -0 56 1011 10 E/NE 27.8
Oggi h: 10:50 sereno Sereno 8 0 56 1011 10 NE 25.9
Oggi h: 10:20 sereno Sereno 7 0 60 1011 10 NE 25.9
Oggi h: 09:50 sereno Sereno 7 0 60 1011 10 NE 27.8
Oggi h: 09:20 sereno Sereno 6 0 65 1011 10 N/NE 22.2
Oggi h: 08:50 sereno Sereno 5 -0 70 1011 10 N/NE 20.3
Oggi h: 08:20 sereno Sereno 4 -0 75 1011 10 N/NE 18.5
Oggi h: 07:50 nuvoloso Nuvoloso 4 -0 75 1012 10 N/NE 18.5
Oggi h: 07:20 nuvoloso Nuvoloso 4 -0 75 1011 10 N 14.8
Oggi h: 06:50 molto_nuvoloso Molto Nuvoloso 4 -1 69 1012 10 N/NE 14.8
Oggi h: 06:20 sereno Sereno 4 -1 69 1012 10 N/NE 13
Oggi h: 05:50 sereno Sereno 3 -1 74 1011 10 N 13
Oggi h: 05:20 sereno Sereno 3 -1 74 1012 10 N 13
Oggi h: 04:50 sereno Sereno 3 -1 74 1012 10 N 11.1
Oggi h: 04:20 sereno Sereno 4 -1 69 1012 10 N 11.1
Oggi h: 03:50 sereno Sereno 4 -1 69 1012 10 N/NE 13
Oggi h: 03:20 sereno Sereno 4 -1 69 1012 10 N 11.1
Oggi h: 02:50 sereno Sereno 4 -1 69 1013 10 N 11.1
Oggi h: 02:20 sereno Sereno 4 -1 69 1013 10 N 13
Oggi h: 01:50 sereno Sereno 5 -1 65 1013 10 N 13
Oggi h: 01:20 sereno Sereno 5 -1 65 1013 10 N 13
Oggi h: 00:50 sereno Sereno 4 -0 75 1014 10 N/NE 13
Oggi h: 00:20 sereno Sereno 5 0 70 1014 10 N/NE 11.1
Ieri h: 23:50 sereno Sereno 5 1 75 1014 10 NE 9.3
Ieri h: 23:20 sereno Sereno 6 1 70 1014 10 NE 11.1
Ieri h: 22:50 sereno Sereno 6 0 65 1015 10 NE 13
Ieri h: 22:20 sereno Sereno 6 -1 60 1015 10 N/NE 16.7
Ieri h: 21:50 sereno Sereno 5 -0 70 1015 10 N/NE 13
Ieri h: 21:20 sereno Sereno 5 -1 65 1015 10 N 13
Ieri h: 20:50 sereno Sereno 5 -1 65 1015 10 N 13